Theta_e
310 310 310 311 311 312 314 314 313 312 312 311 311 313 312 311 311 312 312 310 306 300 297 296 296 295 295 294 294 294 294 294 294 294 293 293 293 292 292 292 293 293 293 293 292 292 292 291 291 290 290 290 289 289 289 289 289 288 288 288 287 287 287 287 287 286 286 286 286 285 285 285 285 284 284 284 284 284 284 284 284 284 284 283 283
309 310 310 310 311 311 312 314 313 312 310 310 311 313 312 311 311 311 311 309 305 300 297 296 295 295 294 294 294 294 294 294 294 294 293 292 292 292 292 292 292 292 292 291 291 291 291 291 290 290 289 289 289 289 289 289 288 288 288 287 287 287 287 287 287 287 286 286 286 285 285 285 284 284 284 284 284 284 284 284 284 284 284 283 283
309 309 309 310 311 311 311 313 313 312 311 310 311 312 312 311 311 311 310 308 304 299 296 295 295 294 294 294 294 293 293 293 293 293 292 292 292 292 292 292 292 291 291 291 291 291 291 290 290 289 289 289 288 288 288 288 288 288 288 287 287 287 287 287 287 287 286 286 286 285 285 284 284 284 284 284 284 284 284 284 284 284 283 283 283
308 309 310 310 310 310 311 312 313 312 311 310 310 311 311 310 310 310 309 307 303 298 295 295 295 294 294 294 293 293 293 293 293 292 292 292 292 292 292 291 291 291 291 290 291 290 290 290 289 289 288 288 288 288 288 288 288 288 288 287 287 287 287 287 287 286 286 286 286 285 284 284 284 283 284 284 284 284 284 284 284 283 283 283 283
308 309 309 310 310 310 311 312 312 311 311 311 310 310 310 309 310 310 308 305 301 297 295 294 294 294 293 293 293 293 293 292 292 292 292 292 292 292 291 291 291 291 291 291 291 290 290 289 289 289 288 288 288 288 288 288 288 288 287 287 287 287 287 287 287 286 286 286 285 285 284 284 284 284 284 284 284 284 284 284 284 283 283 283 283
308 309 309 309 310 310 311 311 310 310 311 311 310 310 310 309 310 310 307 304 300 296 294 294 294 294 293 293 293 293 292 292 292 292 292 292 292 292 291 291 291 291 292 292 291 291 290 289 289 288 288 288 288 288 288 288 288 288 287 287 287 287 287 287 287 286 286 285 285 285 284 284 284 284 284 284 284 284 284 284 284 283 283 283 283
308 308 309 309 309 310 310 310 309 309 310 311 310 310 309 309 310 309 307 304 300 296 294 294 294 293 293 293 293 292 292 292 292 292 292 292 291 291 292 292 292 292 292 292 292 292 292 290 289 288 288 288 288 287 287 287 287 287 287 287 287 287 287 287 286 286 285 285 285 285 284 284 284 284 284 284 284 284 284 284 284 284 283 283 283
308 308 308 309 309 309 309 309 308 308 308 310 310 310 309 309 309 309 307 304 300 296 294 293 294 293 293 293 292 292 292 292 292 292 292 292 291 292 292 292 292 292 292 291 292 294 294 291 290 289 288 288 287 287 287 287 287 287 287 287 287 287 287 286 286 285 285 285 285 285 284 284 284 284 284 284 284 284 284 283 284 284 284 283 283
307 307 307 308 308 308 307 307 308 308 308 308 310 310 309 309 309 309 307 304 300 296 293 293 293 293 293 293 292 292 292 292 292 292 292 292 292 292 292 291 292 293 292 292 293 294 294 293 292 290 289 288 288 287 287 287 287 288 287 287 287 287 287 286 286 285 285 285 285 285 284 285 285 285 285 285 285 284 284 283 283 284 284 284 283
307 307 307 307 307 307 307 306 306 307 307 307 308 310 310 309 309 308 306 303 300 296 293 293 293 293 293 293 292 292 292 292 292 292 292 292 292 292 291 291 293 294 293 292 292 293 294 294 294 292 291 290 289 288 287 287 288 288 287 287 287 287 286 286 286 285 285 285 285 285 285 285 285 285 285 285 285 284 284 283 283 283 284 284 284
307 306 306 306 306 306 306 306 306 306 306 307 308 309 309 309 308 307 305 303 299 295 293 293 293 293 292 292 292 292 292 292 292 292 292 292 292 291 290 292 294 295 294 292 291 292 294 294 294 294 292 292 291 290 288 288 288 288 288 287 287 287 287 286 286 285 285 285 285 285 285 286 286 286 286 286 285 284 284 283 283 283 283 283 284
307 306 306 306 306 306 306 306 305 305 305 306 307 308 308 308 307 306 304 302 298 295 293 292 293 292 292 292 292 292 292 291 292 292 292 292 292 290 290 292 295 295 294 291 289 290 292 293 294 294 293 293 292 291 290 289 288 288 288 287 287 287 287 286 286 286 285 285 285 285 286 286 286 286 286 286 285 284 284 283 283 283 283 283 283
306 306 305 305 305 305 305 305 305 305 305 305 306 307 307 307 306 304 302 300 298 294 292 292 292 292 292 292 292 292 291 291 291 292 292 292 291 289 290 293 295 295 294 292 289 288 290 292 293 293 294 293 293 292 291 290 289 288 288 288 287 287 287 287 286 286 286 285 285 286 286 286 286 286 286 285 285 284 284 284 283 283 283 282 282
305 304 304 304 303 303 303 304 304 305 305 306 306 306 307 307 306 304 301 299 297 294 292 292 292 292 292 292 292 292 291 291 291 292 292 292 290 289 291 294 295 295 294 292 289 288 289 291 291 292 293 293 293 292 291 290 289 288 288 288 288 288 287 287 287 286 286 286 286 286 286 286 285 285 285 285 285 284 284 284 284 283 283 282 282
303 303 302 302 302 302 301 302 303 304 305 306 306 306 306 306 306 305 302 298 296 294 292 292 292 292 292 292 291 291 291 291 291 292 292 291 289 289 292 294 295 294 294 293 291 290 290 290 291 291 291 292 293 292 291 290 289 288 288 288 288 288 287 287 287 287 287 287 287 287 287 286 286 285 285 285 285 284 283 284 284 284 283 283 282
302 302 302 301 301 301 301 301 301 302 303 304 304 305 305 305 305 304 302 299 296 294 292 291 291 291 291 291 291 291 291 291 291 291 291 290 289 290 292 294 295 294 294 293 292 292 291 290 290 290 291 291 292 292 291 290 289 288 288 287 288 288 288 287 287 287 286 286 287 287 286 286 285 285 285 285 285 284 282 283 284 284 283 282 282
302 302 301 301 300 300 300 300 300 301 302 303 304 304 304 304 303 302 301 299 296 293 291 290 290 290 290 291 291 291 291 290 290 291 290 289 289 290 293 294 294 294 293 293 292 292 291 291 290 290 290 290 290 291 291 290 289 288 287 287 287 287 288 287 287 286 286 286 286 286 286 286 285 285 285 284 284 283 282 282 284 284 282 281 282
302 301 300 300 299 299 299 299 299 299 300 301 302 302 303 303 302 301 300 299 297 295 292 290 290 290 290 290 290 290 289 289 289 289 289 289 290 291 293 294 294 293 293 292 292 292 291 291 291 290 290 290 289 289 289 290 289 288 287 287 287 287 288 287 287 287 286 286 286 286 285 285 285 284 284 283 282 281 281 282 283 282 281 280 280
300 299 299 299 298 298 298 298 298 298 298 299 300 300 301 300 300 299 298 297 297 296 295 293 291 290 289 289 289 288 288 288 289 289 289 289 290 292 293 294 293 293 292 292 291 291 291 291 290 290 289 289 289 288 288 288 288 288 287 286 286 287 287 287 287 286 286 286 286 285 285 285 285 284 284 283 281 279 281 282 282 281 280 279 279
299 298 298 298 298 298 297 297 298 298 298 298 298 298 298 298 298 297 297 296 296 295 295 294 292 290 289 288 288 288 289 289 289 288 289 290 291 292 293 293 292 292 291 291 290 290 290 290 289 289 289 288 288 287 287 287 287 287 287 286 286 286 286 286 286 286 286 286 285 285 285 284 284 283 283 282 281 279 280 281 281 280 279 278 279
298 298 298 297 297 297 297 297 297 297 297 297 297 296 296 296 295 295 294 294 294 294 293 293 291 291 290 290 290 290 290 289 289 290 291 292 293 293 292 291 291 290 290 289 289 289 289 288 288 288 288 287 287 286 286 286 285 285 286 286 286 286 286 286 286 286 285 285 285 285 284 284 283 282 281 281 280 279 280 280 280 279 278 278 279
297 297 297 297 297 296 296 296 296 296 296 295 295 295 294 294 293 293 293 293 294 294 294 293 293 292 292 292 292 292 292 292 292 293 293 293 292 291 290 289 289 288 288 288 288 287 287 287 287 286 286 286 285 285 285 285 285 285 285 285 285 285 285 285 285 285 285 285 284 284 284 283 282 281 281 281 280 280 280 279 279 278 278 278 278
299 298 298 297 297 296 296 296 295 295 295 295 295 295 295 296 296 296 296 296 296 296 295 295 295 295 295 295 295 294 294 294 293 293 292 290 289 289 288 288 287 287 286 286 286 286 286 286 286 285 285 285 285 285 285 285 284 284 285 285 284 284 284 284 284 284 284 283 283 283 283 283 283 282 282 282 281 281 280 279 278 278 277 278 277
301 300 299 299 298 297 297 296 296 296 296 297 297 298 298 298 297 297 297 297 297 297 296 296 296 296 295 295 294 294 293 292 291 290 290 289 288 288 288 287 287 286 286 287 287 287 287 287 286 286 286 286 286 286 285 285 285 285 285 284 284 283 282 282 282 282 282 282 282 282 283 283 283 283 282 282 281 280 279 278 278 277 277 277 277
301 301 300 299 299 298 298 297 297 297 297 297 298 297 297 297 297 297 297 296 296 296 296 295 294 294 294 293 292 292 291 290 290 290 289 289 289 288 288 288 287 287 287 288 288 288 288 288 287 287 287 287 286 286 286 286 285 284 284 283 282 281 281 281 281 281 281 281 281 281 282 282 282 281 281 280 279 279 279 278 278 277 276 276 276
301 301 300 300 299 299 299 298 298 297 297 297 296 296 296 296 295 295 295 295 294 294 293 293 292 292 292 292 291 291 290 290 290 290 290 289 289 289 289 289 288 288 289 289 289 289 289 288 288 287 287 286 285 285 285 285 284 283 282 281 280 279 279 279 280 280 279 280 280 280 280 280 280 280 280 279 279 278 278 278 277 277 276 276 276
300 300 299 299 298 298 297 297 297 296 296 295 295 295 294 294 294 294 293 293 292 292 292 291 291 291 291 290 290 290 290 290 290 290 289 289 289 289 289 289 289 288 288 288 288 288 288 288 287 287 286 286 285 284 284 283 282 281 281 279 279 278 278 278 278 278 278 278 278 278 279 279 279 279 279 279 278 278 278 278 277 276 276 275 275
298 297 297 297 296 296 295 295 295 295 294 294 294 293 293 293 292 292 291 291 291 291 291 290 290 290 290 290 290 289 289 289 289 289 289 289 289 289 289 288 288 288 288 288 288 287 287 287 287 286 286 286 285 285 284 283 282 281 281 280 279 278 278 278 278 278 278 278 278 278 278 278 278 278 278 278 278 278 278 277 276 276 275 275 275
295 295 294 294 294 293 293 293 293 292 292 292 292 291 291 291 290 290 290 290 290 290 290 290 290 290 289 289 289 289 289 289 289 289 289 289 289 289 289 289 288 288 288 287 287 287 287 287 286 285 285 284 284 284 283 283 282 282 281 280 280 279 278 277 277 277 277 277 277 277 277 277 277 277 277 277 277 277 277 276 276 275 275 275 275
292 292 292 292 291 291 291 291 291 291 291 290 290 290 290 290 290 290 290 290 290 290 290 290 289 289 289 289 289 289 289 289 289 289 289 289 289 289 289 289 288 288 288 288 287 287 287 287 286 286 285 284 284 283 283 282 282 281 281 280 279 279 278 277 277 277 277 276 276 277 277 277 277 277 277 277 277 276 276 276 275 275 275 275 275
291 291 291 291 291 290 290 290 290 290 290 290 290 290 290 290 290 290 290 290 290 289 289 289 289 289 290 289 289 290 290 289 289 289 289 289 289 289 288 288 288 287 287 286 286 286 286 285 286 285 284 283 283 282 281 280 280 280 279 279 278 278 278 278 277 277 277 276 276 276 276 276 276 276 276 276 276 276 276 275 275 274 274 274 274
291 291 291 291 291 291 291 291 290 290 290 290 290 290 290 290 290 290 290 289 289 289 289 290 290 290 290 290 289 289 289 289 289 289 288 288 288 288 287 287 286 285 284 283 283 283 283 282 282 282 281 280 280 280 279 278 278 278 278 278 277 277 277 277 277 277 276 276 276 276 275 275 275 275 275 275 275 275 275 275 274 274 274 274 273
291 291 291 291 291 291 291 290 290 290 290 290 290 290 290 290 289 289 289 289 290 290 290 290 290 290 289 289 289 289 289 288 288 288 288 287 287 287 286 286 285 284 283 281 281 280 280 279 280 279 279 278 278 278 278 277 277 277 277 277 277 277 277 277 276 276 276 276 275 275 275 275 275 275 275 274 274 274 274 274 274 274 273 273 273
291 291 291 291 290 290 290 290 290 290 290 290 289 289 289 290 290 290 290 290 290 290 290 289 289 289 289 288 288 288 288 287 287 287 287 286 286 286 285 285 284 284 283 281 281 280 279 279 279 279 279 278 278 278 278 277 277 277 277 277 276 276 276 276 276 276 276 276 276 275 275 275 275 275 274 274 274 274 274 274 273 273 273 273 272
290 290 290 290 290 290 290 290 290 289 289 290 290 290 290 290 290 290 290 290 289 289 289 289 288 288 288 287 287 287 287 287 286 286 286 286 285 285 284 284 283 283 282 282 281 280 279 279 279 278 278 278 278 278 277 277 277 277 277 276 276 276 276 276 276 276 276 275 275 275 275 275 275 275 275 274 274 274 274 274 273 273 273 272 272
291 291 291 290 290 290 290 290 290 290 290 290 290 290 290 290 290 289 289 289 288 288 288 287 287 287 287 287 286 286 286 286 285 285 285 284 284 283 283 283 282 282 282 281 281 280 279 278 278 278 277 277 277 277 277 276 276 276 276 276 275 275 275 275 275 275 275 275 274 274 274 274 274 274 274 274 274 274 274 273 273 272 272 271 271
291 291 291 291 291 291 291 291 290 290 290 290 290 289 289 289 288 288 288 288 287 287 287 287 286 286 286 286 285 285 285 284 284 283 283 283 283 282 282 282 282 281 281 281 280 280 279 278 278 277 277 276 276 276 276 275 275 275 275 275 275 274 274 274 274 274 274 274 273 273 273 273 273 273 273 273 273 273 272 272 272 271 271 270 270
291 291 291 291 291 291 290 290 290 289 289 289 288 288 288 288 287 287 287 287 286 286 286 286 286 285 285 285 284 284 283 283 282 282 282 282 281 281 281 281 280 280 280 279 279 278 278 278 277 277 276 276 275 275 275 275 275 274 274 274 274 274 274 274 274 273 273 273 272 272 272 272 271 271 271 271 271 271 271 270 270 270 269 269 268
291 291 291 290 290 290 289 289 289 288 288 288 287 287 287 287 287 286 286 286 286 286 286 285 285 285 284 284 283 283 282 282 281 281 281 281 280 280 279 279 278 278 278 277 277 276 276 276 275 275 275 275 274 274 274 274 274 274 274 273 273 273 273 273 272 272 272 271 271 271 270 270 270 270 270 270 270 269 269 269 269 268 268 268 267
290 290 290 290 289 289 288 288 288 287 287 287 287 287 286 286 286 286 285 285 285 285 285 285 284 284 283 283 282 282 281 281 280 280 279 279 279 278 278 277 277 276 276 275 275 274 274 274 274 273 273 273 272 272 272 272 272 272 272 272 271 271 271 271 270 270 270 269 269 269 269 268 268 268 268 268 268 268 268 267 267 267 267 267 267
290 289 289 288 288 288 287 287 287 287 286 286 286 286 285 285 285 285 285 285 284 284 284 283 283 282 282 281 281 280 280 279 279 279 278 278 277 277 277 276 276 275 275 274 274 273 273 273 273 272 272 272 271 271 271 271 271 271 270 270 270 270 270 269 269 269 269 268 268 268 268 267 267 267 267 266 266 266 266 266 266 266 266 266 266
288 288 288 287 287 287 287 286 286 286 286 285 285 285 285 284 284 284 284 283 283 283 282 282 281 281 280 280 280 279 279 278 278 277 277 277 276 276 275 275 274 274 274 273 273 273 273 272 272 272 271 271 271 270 270 270 270 270 270 269 269 269 269 269 268 268 268 268 268 267 267 267 266 266 266 266 266 265 265 265 265 265 265 265 264
287 287 287 287 286 286 286 286 285 285 285 285 284 284 284 283 283 283 283 282 282 281 281 280 280 280 279 279 278 278 278 277 277 276 276 275 275 274 274 274 273 273 273 273 272 272 272 272 271 271 271 271 270 270 270 270 270 269 269 269 269 269 268 268 268 268 268 268 267 267 267 266 266 266 266 265 265 265 265 265 264 264 264 264 264
287 286 286 286 286 285 285 285 285 284 284 284 283 283 283 282 282 282 281 281 281 280 280 279 279 279 278 278 277 277 276 276 275 275 275 274 274 273 273 273 273 272 272 272 272 271 271 271 271 271 270 270 270 269 269 269 269 269 269 268 268 268 268 268 268 268 267 267 267 267 267 266 266 266 265 265 265 265 265 264 264 263 263 263 263
286 286 285 285 285 285 284 284 284 283 283 283 282 282 282 281 281 281 280 280 280 279 279 278 278 277 277 276 276 275 275 275 274 274 274 273 273 272 272 272 272 272 271 271 271 271 271 270 270 270 269 269 269 269 268 268 268 268 268 268 268 268 267 267 267 267 267 267 267 267 266 266 266 265 265 265 265 265 264 264 263 263 263 263 263
285 285 284 284 284 284 283 283 283 282 282 281 281 281 281 280 280 280 279 279 279 278 278 277 277 276 276 275 275 274 274 274 273 273 273 272 272 272 272 271 271 271 271 271 270 270 270 270 269 269 269 269 268 268 268 268 268 268 268 268 268 268 268 267 267 267 267 267 266 266 266 266 266 265 265 265 264 264 264 264 263 263 263 263 262
284 284 284 283 283 283 282 282 282 281 281 281 280 280 280 279 279 279 278 278 278 277 277 276 276 275 275 274 274 274 273 273 273 272 272 272 272 271 271 271 271 271 270 270 270 269 269 269 269 269 268 268 268 268 268 268 268 268 268 268 268 268 268 268 267 267 267 267 267 266 266 266 266 265 265 265 264 264 264 264 263 263 263 263 263
283 283 283 282 282 282 281 281 281 280 280 280 279 279 279 278 278 278 277 277 277 276 276 275 275 274 274 273 273 273 272 272 272 272 271 271 271 271 271 271 270 270 270 270 269 269 269 268 268 268 268 268 268 268 268 268 268 268 268 268 268 268 268 268 267 267 267 267 267 267 266 266 265 265 265 264 264 264 264 263 263 263 263 263 263
282 282 282 281 281 281 280 280 280 279 279 279 278 278 278 277 277 276 276 276 275 275 274 274 273 273 273 273 272 272 272 272 271 271 271 271 270 270 270 270 270 270 270 269 269 268 268 268 268 268 268 268 268 268 268 268 268 268 268 268 268 268 268 267 267 267 267 267 267 267 266 266 266 265 265 264 264 264 264 264 263 263 263 263 263
281 281 281 280 280 280 279 279 279 278 278 278 277 277 276 276 276 275 275 274 274 273 273 273 272 272 272 272 272 271 271 271 271 271 270 270 270 270 270 270 270 269 269 269 268 268 268 268 268 268 268 268 268 268 268 268 268 268 268 268 268 268 268 267 267 267 267 267 267 267 266 266 266 265 265 264 264 264 264 263 263 263 263 263 263
280 280 280 279 279 279 278 278 278 277 277 276 276 276 275 275 274 274 274 273 273 272 272 272 272 272 271 271 271 271 271 271 270 270 270 270 270 270 270 270 269 269 269 269 268 268 268 268 268 268 268 268 268 268 268 268 268 268 268 268 268 268 268 268 267 267 267 267 267 267 266 266 266 265 265 265 264 264 264 263 263 263 263 263 263
Wind_Speed
35 35 33 32 32 33 34 33 33 32 30 29 31 31 28 27 28 29 30 31 34 38 39 38 37 36 35 35 34 33 31 30 28 27 26 25 23 20 18 16 16 15 15 15 15 15 14 14 14 14 13 13 13 13 13 13 14 14 14 14 14 15 16 17 18 19 18 18 19 19 20 20 20 20 21 21 21 22 23 23 24 24 24 23 23
35 35 34 33 33 33 34 35 34 33 31 31 33 32 30 30 30 30 32 33 36 39 40 38 37 36 36 35 34 32 31 29 28 27 26 24 21 19 17 16 15 14 14 14 14 13 13 14 14 13 13 13 13 13 14 14 15 15 15 15 15 16 17 18 20 21 20 19 20 20 21 21 21 20 22 22 23 24 24 25 25 25 25 24 24
34 34 34 33 33 33 34 36 36 33 32 33 34 33 30 31 31 31 32 35 37 40 41 39 38 37 36 35 34 32 31 29 28 27 25 23 20 18 17 15 14 13 12 12 12 13 13 13 13 13 14 14 14 14 15 15 16 16 16 17 17 17 18 19 21 22 23 23 22 21 21 21 22 21 21 23 24 25 26 26 26 27 26 26 25
32 34 34 33 33 33 34 36 37 35 33 34 34 34 32 32 32 31 32 36 39 41 41 39 38 37 36 35 34 32 31 30 28 26 24 21 19 17 16 14 13 12 11 12 12 13 13 13 13 14 14 15 15 16 16 16 17 17 17 18 18 19 20 21 22 23 25 26 25 24 23 22 22 22 22 23 24 25 26 27 28 28 28 27 25
32 33 34 34 34 34 35 37 37 36 35 35 34 34 33 33 33 32 33 37 40 42 42 40 39 37 36 35 34 32 31 29 28 25 23 21 19 18 16 14 13 12 12 13 13 13 13 13 14 15 15 16 17 17 17 17 17 18 19 19 19 20 21 23 24 25 26 27 27 26 25 23 23 22 23 24 24 25 26 27 29 29 29 28 26
31 33 34 35 36 36 36 37 37 37 36 36 35 34 34 35 34 33 33 37 41 43 43 41 39 37 36 35 33 32 31 29 27 24 22 21 20 18 17 15 14 14 14 14 13 13 14 14 15 16 17 17 17 17 18 18 19 19 20 20 21 22 23 24 25 26 27 28 28 28 26 25 24 24 24 24 25 25 27 28 30 30 30 30 27
31 33 35 36 36 37 38 38 37 36 37 36 35 34 34 35 35 33 33 37 41 44 43 41 39 37 36 35 34 32 31 29 27 25 23 22 21 19 17 16 16 15 15 15 15 15 15 15 16 17 17 18 18 18 19 19 20 21 21 22 22 23 24 25 26 27 28 28 28 28 27 26 25 25 25 25 25 26 27 29 31 31 32 33 30
31 33 35 36 37 37 37 38 36 36 36 36 35 35 35 36 36 34 34 36 41 44 44 41 39 38 37 36 34 33 31 30 28 26 25 23 21 20 18 18 17 16 17 17 17 18 17 17 17 17 18 19 19 20 20 21 22 22 23 23 23 24 25 26 27 27 28 29 29 28 27 26 25 25 25 25 25 26 27 29 32 33 34 34 32
30 32 34 36 36 36 36 36 36 36 36 36 36 35 35 36 36 35 34 36 39 43 43 41 40 39 38 36 35 34 32 31 29 27 25 23 22 21 20 20 19 19 19 20 20 20 20 20 20 19 18 19 20 21 22 22 23 24 24 24 25 26 26 27 27 27 27 29 29 28 28 27 25 25 25 25 26 28 29 30 32 33 34 35 34
30 32 33 34 36 36 35 34 35 36 37 37 36 36 36 37 37 35 34 35 38 42 44 43 41 39 38 36 36 35 33 32 29 27 25 24 23 23 22 22 21 22 23 22 22 22 22 22 23 22 21 20 20 21 22 24 25 26 26 26 26 27 28 28 28 27 28 29 28 28 28 26 25 25 25 26 28 29 31 32 33 34 35 36 36
29 31 32 33 35 36 36 34 34 35 35 36 37 37 37 36 35 34 34 35 39 43 45 44 42 39 38 37 36 35 34 32 29 27 26 26 25 25 25 24 24 25 25 24 24 24 23 24 25 25 24 23 22 22 23 24 26 27 28 29 28 29 29 29 29 28 28 29 29 28 28 27 26 26 27 28 30 31 32 33 35 36 36 37 37
27 30 31 32 34 35 36 35 35 34 33 34 36 37 35 34 34 34 35 36 39 43 45 44 42 40 39 38 37 35 33 31 29 28 27 27 27 28 27 26 26 27 26 26 26 26 26 25 27 27 25 24 25 25 25 25 26 28 30 31 31 31 31 31 30 29 29 30 30 29 29 29 28 29 30 31 32 32 33 35 36 37 38 38 38
26 28 30 32 33 34 35 36 35 34 32 31 33 35 35 34 33 33 33 35 38 42 44 44 42 41 40 38 37 36 33 31 30 29 29 29 29 30 30 29 29 28 27 27 28 29 29 29 29 29 26 24 25 27 27 27 27 29 31 32 33 33 33 34 32 30 30 32 33 31 30 31 31 32 32 33 34 33 34 36 37 38 39 39 38
25 27 29 30 32 33 34 35 35 34 33 31 31 32 34 34 32 31 31 34 37 41 44 44 43 42 40 39 38 36 33 31 30 30 30 30 31 31 32 32 31 30 29 29 31 33 33 33 33 32 29 27 26 27 28 28 28 30 32 34 35 36 37 37 35 33 33 34 34 33 33 33 34 34 34 35 35 35 35 37 38 39 40 38 38
22 24 27 29 30 31 32 33 33 33 34 34 32 32 33 33 31 30 31 33 36 39 42 43 43 42 40 39 37 36 34 32 32 32 32 31 32 34 35 35 34 33 32 32 33 35 36 37 37 36 34 32 30 28 29 30 31 33 35 36 37 38 40 41 38 37 36 36 36 36 36 37 36 35 36 36 37 37 37 38 39 40 40 38 38
19 21 23 24 26 27 28 30 31 32 33 34 34 33 33 32 32 31 31 33 35 38 40 42 42 42 41 39 38 37 35 34 34 33 32 32 34 36 37 38 38 36 34 33 34 36 38 39 39 39 38 38 35 32 31 32 34 36 38 40 40 41 43 43 42 40 39 39 39 39 39 39 38 38 38 39 39 39 38 38 40 41 39 39 40
15 16 17 18 19 21 23 25 27 29 31 32 32 33 32 32 32 32 32 34 35 36 39 40 41 42 41 40 39 38 36 36 34 33 32 34 37 38 39 41 41 39 36 35 35 36 38 39 40 41 42 42 41 38 36 35 37 39 41 43 44 44 45 44 44 43 42 42 41 41 40 40 40 40 40 40 40 40 39 39 39 39 39 40 42
12 12 13 14 15 17 19 21 23 25 27 28 29 30 30 30 30 30 31 32 32 33 35 36 38 39 39 39 39 38 36 34 32 32 34 36 38 38 39 41 41 40 38 37 37 37 38 39 41 43 44 44 44 43 42 40 40 41 43 45 46 48 47 45 45 45 45 44 43 43 42 42 42 42 42 41 39 38 41 41 38 38 40 41 42
10 10 10 11 12 13 14 16 18 19 21 23 25 26 26 26 26 26 26 27 27 27 29 30 32 34 36 36 36 34 33 32 32 34 36 37 38 40 41 41 40 39 38 38 38 38 39 41 42 44 45 45 46 47 47 46 45 44 44 46 49 51 49 46 46 47 46 46 45 44 44 44 43 43 43 43 38 37 40 41 38 38 41 41 41
10 10 9 9 9 9 10 11 12 13 14 16 18 20 20 20 19 19 18 18 18 18 19 21 24 26 29 31 31 32 32 33 34 36 37 39 40 40 38 37 37 37 38 39 40 41 42 43 44 45 46 46 48 49 50 50 50 48 47 49 52 52 50 48 49 49 48 48 48 47 46 46 45 44 45 44 41 40 41 40 38 39 40 40 40
13 12 11 11 10 9 9 8 8 8 9 10 12 13 13 12 12 11 11 12 12 13 14 16 18 22 24 27 29 31 32 33 35 37 37 37 35 33 32 33 34 35 37 40 43 45 46 47 47 47 47 48 48 49 50 51 52 52 52 52 52 52 51 51 52 51 52 52 51 51 50 49 47 45 44 43 42 41 41 39 39 39 37 37 38
16 15 14 14 13 12 11 11 10 10 9 9 10 10 10 10 10 10 10 10 11 12 13 15 18 20 23 25 28 30 31 32 33 33 32 30 27 27 29 30 32 34 38 42 44 46 47 47 47 47 47 47 47 47 48 49 50 52 54 54 53 53 53 53 54 54 54 54 53 53 52 50 48 46 45 44 44 43 41 40 40 37 35 34 34
19 18 17 17 16 16 15 14 13 12 12 11 11 11 10 10 10 10 10 10 11 12 14 16 18 20 22 23 25 26 26 27 26 26 24 23 23 24 26 28 30 32 37 40 42 43 43 43 43 44 44 44 45 45 46 47 48 50 52 52 53 53 52 52 54 55 54 54 54 54 54 53 51 51 49 48 46 44 41 38 36 35 34 33 31
20 19 19 18 18 17 16 16 15 14 14 14 13 12 12 11 11 11 12 12 13 14 15 16 17 18 18 19 19 19 19 19 19 19 20 20 21 23 24 26 27 29 32 36 38 39 40 41 41 41 42 43 44 45 45 46 47 48 49 49 49 48 47 47 47 48 50 52 53 54 56 56 55 54 51 48 45 43 39 35 33 34 35 33 31
20 19 19 18 18 17 17 17 16 15 15 15 14 13 13 13 13 13 13 14 14 14 14 14 14 14 14 14 14 13 14 15 16 17 18 19 21 22 23 25 26 27 31 34 36 37 39 40 40 41 42 43 44 45 46 47 46 45 45 43 41 40 40 40 40 41 44 49 51 52 54 55 53 52 50 46 43 41 37 34 34 35 35 33 31
18 17 17 17 16 16 16 16 16 16 15 14 14 13 13 13 13 12 12 12 12 11 12 12 12 12 11 11 11 12 14 15 16 16 18 19 21 22 23 24 26 27 30 33 34 35 37 38 39 40 40 40 41 42 44 45 44 44 42 38 35 35 36 37 39 39 41 44 47 47 49 50 49 49 49 46 44 41 37 35 35 36 35 32 32
16 16 16 16 16 16 15 15 15 15 14 14 13 13 12 12 12 11 11 10 10 10 10 10 10 10 10 10 11 12 14 14 15 15 17 18 19 20 22 23 24 26 28 30 31 32 34 36 37 38 39 39 40 40 40 41 41 41 41 38 36 36 35 35 36 37 38 39 40 40 40 42 45 47 48 47 45 42 39 36 36 36 34 32 32
16 16 16 16 16 16 15 15 15 14 14 14 13 12 12 11 11 10 10 9 9 8 8 8 8 9 9 10 11 12 12 12 13 15 16 18 19 20 21 22 24 25 27 28 29 31 32 34 35 37 38 38 39 39 39 39 39 39 39 38 38 37 35 33 33 34 34 35 35 35 35 37 40 43 45 46 45 42 39 36 36 35 33 31 32
17 17 17 16 16 16 16 15 15 15 14 14 13 13 12 11 10 9 9 8 8 7 7 7 7 8 9 9 10 12 12 13 14 16 18 19 20 22 23 24 25 26 27 28 29 30 32 32 33 33 33 33 34 35 35 35 35 36 36 35 35 34 32 30 30 31 31 31 31 31 31 32 34 37 40 42 42 40 37 35 34 33 32 31 32
16 16 16 16 15 15 15 15 15 14 13 13 12 11 10 10 9 8 7 6 6 5 5 6 7 9 10 11 12 14 15 16 17 19 20 22 23 25 26 27 28 29 29 29 30 32 32 33 33 32 31 31 31 31 31 30 30 30 30 29 28 28 27 26 26 27 27 27 28 28 29 30 31 32 34 36 37 37 35 34 33 32 32 31 32
15 15 15 14 14 14 13 13 13 12 12 11 10 9 8 8 7 6 5 5 5 6 7 8 9 11 12 13 15 16 17 18 19 21 22 23 25 26 27 28 28 29 29 28 30 32 33 33 34 33 32 32 32 32 31 30 29 27 26 26 25 25 24 24 24 23 23 24 25 26 27 29 29 30 31 32 33 34 34 33 32 32 31 31 31
13 14 13 13 12 12 11 11 10 10 9 9 8 7 7 6 6 6 6 6 7 8 10 11 12 13 15 16 17 18 19 19 20 22 23 24 25 26 26 26 26 26 24 23 26 29 31 32 32 32 32 32 33 33 32 31 29 27 25 25 25 24 24 23 23 23 23 23 23 24 25 26 27 28 29 30 32 33 34 33 33 32 31 30 30
10 11 11 10 10 10 9 8 8 8 8 7 7 7 7 7 7 7 8 8 10 11 12 13 14 14 15 16 17 18 19 20 21 22 23 24 24 25 26 26 25 24 22 20 23 26 27 28 29 29 29 30 31 31 30 29 28 27 26 25 25 25 24 24 23 23 22 21 21 21 22 23 23 24 25 26 27 28 30 31 31 31 29 29 28
10 9 9 9 9 9 9 9 9 9 8 8 8 8 8 8 8 9 10 10 11 12 12 13 14 14 15 16 17 18 19 20 21 22 23 24 24 24 24 24 23 22 20 20 22 24 25 26 27 27 28 28 29 30 30 29 29 28 28 27 26 25 25 24 24 23 22 21 21 21 21 21 22 22 23 23 24 24 25 26 28 28 28 28 28
11 11 11 11 11 11 11 11 10 10 9 9 9 8 9 9 9 10 10 11 11 12 12 13 13 14 15 16 17 18 19 20 22 22 23 23 23 22 22 22 23 23 22 21 22 22 24 25 27 28 28 29 30 31 31 30 29 29 28 27 26 25 25 24 24 24 24 23 23 23 23 24 24 24 25 25 26 26 26 26 26 28 28 28 29
12 12 12 12 12 12 11 11 10 9 9 9 9 9 9 9 10 10 10 10 10 11 11 12 13 14 15 16 17 18 19 21 22 22 22 22 22 21 22 23 24 24 24 24 23 23 23 24 25 27 28 29 29 30 29 29 28 27 27 26 26 25 25 25 25 25 26 26 26 26 26 27 27 27 27 28 28 28 28 27 27 27 27 28 28
13 13 12 12 12 11 10 10 9 9 9 9 10 10 9 9 9 9 9 9 10 10 11 12 13 15 16 17 18 19 20 21 21 21 21 22 22 22 23 24 24 25 25 25 25 25 25 24 24 25 26 27 28 28 28 28 28 28 27 27 27 27 27 27 27 27 28 28 28 28 27 27 28 27 27 28 28 28 27 27 26 25 25 25 26
13 12 12 11 11 10 10 10 10 10 10 10 9 9 9 9 8 8 9 9 10 11 11 12 13 14 17 18 19 19 19 20 20 20 20 21 22 22 23 24 24 25 25 25 25 25 25 25 24 24 24 25 26 27 28 29 30 30 30 30 30 30 31 30 30 30 29 29 29 29 29 28 28 27 27 28 28 27 26 26 25 25 25 25 26
12 12 12 11 11 11 11 10 10 10 10 9 9 8 8 8 9 9 10 11 11 12 12 13 14 16 18 19 19 18 18 19 19 19 20 20 21 21 22 22 23 23 23 24 24 24 24 25 25 24 24 24 25 26 27 28 29 29 29 29 29 29 29 29 29 29 28 28 28 28 28 28 27 27 27 28 28 28 27 27 27 27 27 27 27
12 12 12 12 12 11 11 11 10 10 9 9 8 8 8 9 10 11 11 12 12 13 14 15 16 17 19 20 19 18 18 18 19 18 19 19 20 20 21 21 21 22 22 22 22 22 23 23 23 23 23 23 23 24 24 25 26 26 26 26 26 25 25 25 25 25 24 24 24 24 24 25 25 25 25 26 26 27 28 28 28 28 28 29 29
13 13 13 12 12 11 10 10 9 8 8 8 8 9 9 10 10 11 12 12 13 14 15 16 17 18 18 18 18 17 17 18 19 19 19 20 20 20 20 20 20 20 21 21 20 20 21 21 21 22 22 22 21 21 22 22 23 23 23 22 22 22 22 21 21 21 21 21 20 20 20 20 20 21 21 21 22 23 24 25 27 27 28 29 29
13 13 12 11 11 10 9 8 8 7 8 8 9 9 10 10 11 11 12 13 14 14 15 16 16 16 17 17 18 18 18 19 19 20 20 20 20 20 19 19 20 20 20 19 19 19 19 20 20 21 21 21 21 21 20 21 21 21 21 21 20 20 20 19 19 20 20 20 19 18 18 18 18 18 18 18 19 20 21 22 23 24 25 25 26
12 12 11 10 10 9 8 7 7 8 9 9 10 10 11 11 12 12 13 13 14 14 15 15 15 16 17 17 18 19 19 19 19 20 20 20 20 19 19 19 19 19 19 19 19 19 19 19 19 20 21 21 21 21 20 20 20 20 20 20 19 19 19 18 18 19 19 19 18 18 17 17 18 18 18 18 18 19 20 20 21 21 21 21 22
11 10 10 9 8 7 7 8 9 10 10 10 11 11 12 12 13 13 13 14 14 14 15 15 16 17 17 18 18 18 19 19 20 20 20 20 19 18 18 18 18 18 19 19 19 19 19 19 19 19 20 21 21 20 20 20 20 20 19 19 19 18 18 18 18 18 18 18 18 18 17 17 17 17 17 17 17 18 19 19 19 19 18 18 19
10 9 9 8 8 8 9 9 10 11 11 11 11 11 12 12 13 13 13 14 14 15 15 16 17 18 18 18 19 19 19 19 19 19 19 19 18 18 17 17 17 17 18 19 19 19 19 19 19 19 19 19 20 20 19 19 19 19 18 18 18 17 17 17 17 17 18 18 18 18 18 17 17 17 17 17 17 18 18 17 17 17 16 16 17
9 9 8 8 8 9 10 10 10 10 10 11 11 12 12 12 13 13 14 15 15 16 17 17 18 18 19 19 19 19 19 19 19 19 19 18 18 18 17 16 17 17 17 18 19 19 19 19 19 19 18 18 18 18 17 17 17 17 17 17 17 17 17 17 17 17 18 18 18 18 18 18 18 17 17 17 17 17 17 17 16 15 15 15 15
9 8 8 9 9 10 10 10 10 11 11 11 12 12 13 13 14 14 15 16 17 18 18 19 19 19 19 19 19 19 19 19 18 18 18 18 17 17 17 16 17 17 17 18 19 19 19 19 19 18 18 17 16 16 16 16 16 16 17 17 18 17 17 18 18 18 18 18 19 19 19 18 18 17 17 17 16 16 16 16 15 14 14 14 14
9 9 9 10 10 11 11 11 11 11 11 12 12 13 13 14 15 15 16 17 18 19 19 20 20 20 19 19 19 19 19 18 17 17 17 17 17 17 17 17 17 17 17 18 18 19 19 18 18 18 17 16 16 15 15 15 16 16 17 18 18 18 18 18 18 18 19 19 19 19 18 18 18 17 17 16 16 15 15 15 15 15 14 14 14
10 10 10 11 11 11 11 11 11 12 12 13 13 14 15 15 16 17 17 18 19 19 19 20 19 19 19 19 19 19 18 18 17 17 17 17 17 18 18 18 18 19 18 18 18 18 18 18 18 17 17 16 16 16 16 16 17 17 18 18 19 19 19 19 19 19 19 19 19 19 18 18 17 17 16 16 15 15 15 15 15 15 15 15 14
11 11 11 11 11 11 11 12 12 12 13 14 14 15 16 16 17 18 18 19 19 19 19 19 19 19 19 19 19 19 18 18 18 17 17 17 18 19 19 19 20 20 19 19 18 17 17 17 17 17 17 16 16 16 17 17 17 18 18 19 19 19 19 19 19 19 19 19 19 19 18 17 17 16 15 15 15 14 14 14 14 14 15 15 14
11 11 11 11 11 12 12 12 13 14 14 15 16 16 17 17 18 19 19 19 19 19 19 19 19 19 19 19 19 18 18 18 18 18 18 18 19 20 20 20 21 20 20 19 18 17 17 17 17 17 17 17 17 17 18 18 19 19 19 19 18 18 18 18 18 18 19 19 19 19 18 17 17 16 15 15 14 14 13 13 13 13 13 13 13
Wind_Direction
230 229 228 225 222 221 222 225 225 227 232 231 229 227 225 226 226 226 227 225 220 217 213 212 212 211 209 208 207 207 206 206 206 206 206 208 208 207 208 211 214 218 223 228 232 236 240 244 247 248 249 251 253 254 258 263 266 268 270 272 275 279 282 284 287 289 289 290 290 289 289 290 290 292 295 298 302 306 310 312 312 313 314 316 317
232 230 228 225 223 222 223 224 223 225 231 230 230 228 222 223 227 228 227 226 222 219 216 215 214 213 212 211 210 208 208 208 209 209 209 209 209 208 210 214 220 225 229 234 240 245 249 251 252 253 254 256 257 257 260 264 266 268 269 272 275 279 283 286 288 290 291 290 287 286 288 289 289 291 294 298 303 307 309 311 311 312 313 315 317
235 232 230 227 224 222 223 223 223 227 231 229 229 230 223 221 228 231 228 226 223 220 218 217 217 216 214 214 212 210 210 210 211 212 211 211 211 212 215 219 225 230 236 242 250 255 258 258 259 259 260 260 260 261 263 265 267 269 270 273 277 280 284 286 287 289 290 289 287 286 286 287 288 290 295 299 303 305 308 309 310 312 313 314 316
237 233 232 229 226 224 222 222 225 229 231 228 227 229 226 224 228 231 228 227 224 220 218 218 218 217 216 216 214 212 212 212 212 213 213 213 214 215 218 223 229 234 239 247 255 260 263 265 265 265 264 263 265 265 266 267 269 271 273 275 278 281 283 285 285 286 287 288 288 288 287 286 288 292 296 298 300 303 306 308 310 311 311 312 315
239 235 233 231 228 225 224 224 227 230 229 227 227 229 228 226 229 231 229 227 224 221 219 218 219 219 218 218 217 215 215 214 214 214 214 215 216 217 218 222 229 236 242 249 256 262 266 268 268 267 266 266 268 268 268 269 270 272 274 276 278 280 281 282 284 284 285 286 288 288 288 289 292 294 295 296 299 303 306 308 309 309 309 311 314
241 238 235 232 229 228 227 227 230 230 228 227 227 229 229 228 231 232 230 228 225 221 219 220 220 220 220 220 219 218 217 216 216 216 216 217 218 218 219 222 228 236 244 251 257 262 265 267 268 269 269 270 270 270 270 271 273 274 276 276 277 278 280 281 283 284 284 285 287 288 290 292 293 294 294 296 300 304 307 308 308 308 308 309 313
241 239 237 235 232 230 229 230 232 231 230 229 229 230 231 232 233 234 231 229 226 222 220 221 221 221 221 221 220 219 218 217 216 216 217 219 219 220 223 227 232 239 245 250 255 259 261 264 267 270 272 273 272 271 272 273 274 276 275 276 276 277 279 281 282 283 284 285 287 288 291 292 292 293 294 298 302 304 306 307 307 308 308 308 312
242 240 238 237 236 233 231 232 234 233 232 232 232 231 232 233 235 235 232 229 227 224 222 222 222 223 222 222 221 221 219 218 217 217 218 219 221 223 226 230 236 242 247 249 255 261 262 261 262 265 271 275 275 274 274 274 275 276 275 276 276 276 278 279 281 282 284 285 286 287 289 289 290 292 295 299 302 303 303 302 303 305 306 307 311
243 241 239 239 239 237 234 233 233 234 234 234 234 234 233 234 236 235 233 230 227 225 223 223 223 224 223 223 222 221 220 219 219 218 219 221 224 227 229 232 239 246 248 250 256 263 267 265 261 259 264 272 276 276 277 276 276 277 276 275 275 275 277 278 280 282 283 284 285 286 286 287 290 293 296 298 300 300 299 298 299 302 304 307 310
244 242 241 240 239 238 237 235 232 233 234 234 234 234 235 236 237 235 233 230 227 225 223 223 224 224 225 225 224 223 222 220 219 219 221 224 227 230 231 234 243 250 251 251 256 264 271 273 270 264 261 265 270 273 276 277 278 278 277 275 274 274 276 277 279 280 281 281 282 283 283 286 291 293 294 295 295 296 297 297 297 300 303 306 308
246 243 242 241 239 238 238 236 234 233 233 233 233 234 236 238 238 235 232 229 226 225 224 224 225 225 226 227 227 226 224 221 220 221 224 227 229 230 231 238 250 257 254 251 255 263 272 279 280 275 268 266 267 268 270 272 274 275 275 274 273 273 274 276 277 278 278 278 279 280 282 286 291 291 291 291 292 294 296 296 296 299 301 304 306
246 244 243 241 239 238 238 236 235 235 234 232 232 234 237 238 236 235 232 229 226 225 225 226 226 226 227 228 228 228 226 224 223 224 227 231 233 231 234 244 258 264 258 251 252 259 268 277 284 284 280 275 271 267 266 267 270 273 274 273 273 273 273 274 275 276 276 277 277 279 282 286 289 289 289 290 291 292 294 294 295 297 298 300 303
245 243 242 241 240 239 238 236 235 236 236 235 232 233 236 237 236 235 234 231 228 227 226 227 228 229 229 230 230 229 227 225 225 228 232 235 235 233 238 251 264 267 261 254 251 255 263 272 279 284 286 283 278 272 267 266 268 271 273 273 273 273 272 272 272 273 274 275 277 280 283 285 287 288 289 289 290 291 292 292 294 295 296 298 300
245 242 241 241 240 240 239 237 236 236 236 236 234 233 235 237 236 234 233 232 230 229 228 228 229 230 231 232 233 232 230 228 229 232 237 238 237 237 244 257 268 270 265 257 252 254 261 269 273 278 282 283 280 277 271 268 269 271 271 272 274 274 273 271 271 271 272 273 276 280 283 284 285 287 288 288 289 289 289 290 292 293 295 296 297
244 242 241 241 241 240 239 238 237 236 236 236 235 235 237 238 237 235 233 232 231 230 231 231 231 232 232 234 235 235 233 232 232 236 239 240 239 241 250 262 271 272 269 264 259 258 262 266 269 273 277 279 278 276 273 270 271 271 270 271 274 275 273 273 273 273 273 274 277 280 281 283 285 287 288 288 288 288 288 289 291 292 294 296 297
241 240 240 241 241 242 242 240 238 237 237 238 237 236 237 238 238 237 235 234 232 231 232 233 233 233 234 235 236 237 236 234 235 239 241 241 242 246 256 268 273 272 271 270 269 267 266 266 268 271 276 277 276 274 274 273 271 271 270 270 272 273 274 274 274 275 276 277 279 281 282 284 287 287 288 288 288 287 286 286 289 291 293 296 296
234 234 236 238 239 240 241 241 239 237 237 239 240 241 241 240 240 239 237 236 235 233 232 233 234 234 234 235 237 239 238 237 239 241 242 243 246 252 264 273 274 273 273 273 274 274 271 269 269 271 275 276 275 274 275 275 274 272 271 270 270 272 275 275 275 276 278 279 280 281 283 284 285 286 286 286 285 284 283 283 287 291 292 293 295
217 218 221 224 228 233 236 238 239 238 238 239 241 244 245 245 244 243 242 242 241 239 237 236 236 236 236 237 239 239 240 240 242 244 245 247 252 261 272 276 273 272 274 275 277 279 278 275 273 273 274 276 275 273 273 275 276 275 272 271 271 272 275 278 277 277 278 279 279 281 282 282 282 283 283 282 279 277 278 282 287 289 288 290 291
191 194 200 206 214 222 227 232 235 236 237 238 240 245 248 249 249 247 247 248 248 245 242 241 241 240 240 240 241 241 243 244 244 245 247 251 258 267 274 274 270 273 277 279 281 283 282 280 278 276 275 276 276 273 272 272 275 277 275 272 271 272 276 280 280 279 280 280 280 280 280 280 280 279 279 277 272 268 272 280 285 284 285 287 287
161 166 174 181 190 200 207 215 222 225 231 235 239 245 248 250 250 249 248 248 246 243 241 241 242 243 242 243 244 246 247 247 247 247 251 258 264 269 271 270 271 276 280 282 284 285 284 283 281 279 279 278 276 275 273 272 273 276 276 274 272 273 277 280 280 280 280 280 280 279 278 277 276 275 274 274 270 266 269 276 280 280 281 282 282
148 149 152 155 160 166 173 181 192 199 210 220 228 235 237 237 236 234 232 233 232 233 233 233 235 238 239 242 244 246 247 248 249 253 258 263 266 269 269 270 274 278 281 283 284 284 284 284 284 282 281 279 278 277 276 275 275 276 275 275 276 276 276 277 278 279 279 279 279 278 276 275 273 271 271 271 270 269 271 274 276 276 276 276 279
142 142 142 144 146 148 152 158 164 171 181 190 198 204 207 206 207 210 216 223 227 231 232 233 235 236 237 240 242 244 247 250 253 257 261 263 264 266 269 272 276 279 281 281 281 282 283 284 285 284 283 282 281 280 279 278 278 277 277 277 278 277 276 276 276 276 276 277 277 276 276 275 274 273 273 273 273 273 273 273 273 272 272 274 279
139 139 140 140 142 144 147 152 157 162 168 173 179 184 187 191 196 203 211 218 223 228 231 233 235 237 239 241 244 246 249 253 256 259 261 263 265 267 270 273 276 277 277 277 279 281 283 284 284 285 285 284 283 281 280 278 277 277 277 277 278 278 278 277 277 277 277 278 278 278 278 278 278 278 278 279 279 278 276 274 273 270 270 274 279
140 141 142 143 145 147 150 153 156 160 164 168 173 176 179 186 194 200 208 216 221 226 231 235 239 241 244 246 249 251 254 256 259 261 263 265 266 267 268 270 272 273 273 274 276 279 281 282 283 284 283 283 282 281 280 279 277 276 276 276 277 277 276 275 275 276 278 279 280 280 281 282 282 283 284 284 283 282 280 277 272 267 267 272 279
146 147 148 149 150 152 154 157 161 164 167 172 176 179 184 191 197 203 210 216 221 226 230 235 240 244 247 249 250 252 255 255 256 258 260 261 262 263 265 266 268 269 270 273 276 278 280 281 282 282 283 283 283 282 281 280 280 280 280 278 276 274 272 270 269 269 272 275 278 280 282 284 286 287 288 288 285 283 281 277 270 264 264 270 277
150 151 152 153 154 156 159 162 164 167 170 174 177 181 186 191 196 201 206 211 216 221 225 230 235 238 241 242 242 244 247 250 253 255 258 262 264 266 268 270 271 272 273 275 278 279 279 280 280 280 281 281 281 281 282 283 284 285 285 283 278 274 271 269 268 267 268 270 273 277 281 283 285 286 287 285 283 282 281 277 269 263 263 268 276
151 152 153 154 156 159 161 163 165 166 168 171 174 178 182 185 189 193 196 200 204 208 213 220 225 229 233 236 239 244 249 256 263 266 269 272 274 275 276 276 276 275 275 276 277 276 276 275 275 275 275 276 276 277 278 281 283 285 286 286 283 280 278 276 275 274 273 272 274 277 279 280 281 282 282 282 282 282 280 275 268 263 263 268 276
148 149 151 153 154 155 156 158 160 161 163 166 168 170 173 174 175 178 182 185 191 198 208 217 226 235 243 248 254 261 267 273 277 279 280 282 283 282 281 280 278 277 277 278 278 277 277 276 276 276 276 277 278 279 279 280 281 283 284 285 285 284 284 283 280 278 276 276 276 278 279 278 278 278 279 280 280 280 278 273 266 263 264 270 278
146 147 148 149 149 151 152 153 154 156 158 159 159 160 163 164 166 173 181 186 194 208 220 231 243 253 262 270 276 281 286 287 285 285 286 287 286 285 285 284 284 284 284 284 283 282 282 281 281 280 281 281 281 282 283 284 285 286 287 289 290 291 291 289 285 282 280 280 280 281 280 278 278 279 280 281 281 281 278 273 267 264 266 272 280
145 145 145 146 147 147 148 149 150 152 154 156 158 159 162 167 172 182 194 202 213 231 246 257 267 275 281 284 285 285 287 286 285 285 286 286 286 287 288 288 289 289 289 290 290 289 288 289 290 291 292 292 291 291 292 293 293 293 294 296 299 301 301 299 296 294 292 289 287 285 282 279 279 281 282 283 284 284 280 274 269 268 270 276 283
147 146 144 146 147 147 149 151 153 155 158 161 165 167 173 181 188 198 215 229 244 260 269 273 277 279 280 280 280 281 283 284 285 286 287 288 289 290 291 292 293 294 296 297 296 296 296 298 299 301 302 302 302 303 304 305 304 303 303 304 304 306 307 307 307 306 302 297 294 291 286 284 283 284 285 286 286 285 282 277 272 272 275 280 284
151 149 148 151 153 154 157 160 161 164 169 172 176 184 193 204 212 223 237 250 260 266 269 271 273 274 276 278 280 282 285 287 289 290 291 292 293 294 294 295 295 295 296 294 292 294 296 298 300 302 303 303 304 305 307 308 308 308 307 305 304 304 305 306 308 307 304 302 301 297 293 291 289 288 288 288 287 285 283 279 276 277 278 280 283
158 158 158 161 166 169 173 176 179 183 189 194 200 205 213 221 230 240 249 255 259 262 264 267 270 273 277 280 283 286 289 291 292 293 293 295 296 296 297 297 295 294 291 285 282 285 287 289 293 296 297 297 297 299 300 301 302 302 302 301 301 301 301 302 302 302 302 302 302 300 298 298 295 293 291 290 288 287 284 281 279 278 276 277 281
173 177 179 181 188 193 194 197 200 202 204 208 212 217 225 231 237 243 249 252 256 261 265 269 273 276 280 283 286 288 291 293 295 296 297 297 298 298 297 297 296 294 289 282 278 278 277 277 279 281 282 284 286 289 292 293 294 296 298 299 300 300 300 299 298 297 298 297 296 295 295 294 293 292 291 290 288 286 284 281 278 275 273 274 278
191 195 197 198 201 203 203 203 205 206 208 213 217 223 230 235 239 243 247 252 257 262 267 272 277 280 283 287 289 291 294 296 298 299 300 299 300 299 298 297 297 297 294 289 284 280 278 277 277 278 279 282 283 285 288 289 290 292 294 296 297 297 297 296 295 294 293 292 291 291 290 289 288 287 286 286 284 283 282 279 276 273 272 272 274
199 201 202 202 203 203 204 205 206 209 212 216 221 225 229 234 239 244 249 255 260 266 272 277 282 284 286 288 291 294 296 298 299 299 299 299 298 298 296 296 297 298 298 296 294 291 288 286 284 283 282 282 282 283 285 286 287 289 290 292 293 294 293 292 292 291 290 289 289 289 288 287 286 284 283 282 282 280 279 277 275 274 272 271 271
202 202 203 204 204 205 207 208 210 213 216 218 222 226 230 234 240 245 251 258 264 272 278 282 284 287 288 290 293 296 297 298 299 299 299 298 298 298 297 298 298 298 298 297 297 297 296 295 293 290 286 284 283 282 283 283 285 286 287 288 290 290 291 291 290 290 289 289 289 288 287 285 284 283 282 281 280 279 277 275 274 274 273 271 272
205 205 206 206 207 209 211 212 213 215 217 221 224 229 234 240 247 254 261 267 272 275 278 279 282 285 288 290 293 297 298 298 298 298 298 298 299 299 299 299 299 298 298 298 298 299 299 299 299 297 294 291 288 286 285 285 285 286 287 287 288 289 289 290 290 290 290 289 288 287 285 284 282 281 280 280 279 278 277 275 274 273 273 273 275
206 207 207 208 209 210 211 213 216 218 221 226 230 235 242 250 258 264 268 272 274 276 277 279 281 283 286 289 291 294 294 294 294 295 295 296 297 297 298 298 298 298 298 299 299 300 300 300 301 300 299 297 295 292 291 290 290 290 291 291 291 291 291 291 291 291 290 290 288 287 285 284 283 281 279 278 277 277 277 276 275 274 274 275 276
207 208 207 208 210 211 213 216 219 221 226 231 237 245 254 259 263 267 270 272 273 275 276 279 281 284 286 288 289 291 292 292 293 295 295 295 296 296 297 298 298 299 300 301 301 302 302 301 301 301 301 300 298 297 296 295 295 296 297 297 297 297 297 297 297 297 296 295 293 291 289 288 287 285 283 282 281 280 279 278 278 277 277 278 277
207 208 208 209 211 214 216 219 222 227 233 241 249 255 260 263 266 268 271 272 274 276 278 279 282 284 287 289 292 294 295 295 296 297 298 299 299 299 300 301 302 302 303 304 304 304 303 302 302 302 302 303 302 302 301 300 300 301 302 303 303 303 303 303 303 303 303 302 301 300 299 297 296 295 294 292 290 287 285 283 282 280 279 279 278
208 209 210 212 213 215 219 223 230 238 247 253 258 261 264 267 270 271 273 275 276 278 280 282 285 287 290 292 295 297 297 299 300 300 301 302 303 303 304 305 305 305 306 306 305 305 303 303 303 303 304 304 305 305 304 303 303 304 305 306 308 308 308 308 308 307 306 307 308 308 308 307 306 305 304 302 299 296 292 289 286 283 282 281 281
209 209 211 214 216 219 226 233 243 251 255 258 262 266 269 271 273 275 277 278 279 281 283 286 289 291 293 295 296 297 299 300 301 302 303 304 305 306 307 307 306 307 307 306 306 306 305 304 304 304 304 305 306 306 306 305 304 305 306 308 310 311 311 310 309 308 308 309 310 310 310 310 310 309 309 308 305 302 299 295 292 289 287 286 285
209 210 213 218 222 228 237 244 250 255 258 261 265 268 271 273 275 276 278 280 282 285 287 289 291 292 293 295 296 297 299 301 301 302 303 303 304 305 306 306 306 306 306 307 308 308 308 307 307 306 306 306 306 307 307 306 306 307 308 309 310 311 312 311 310 310 309 310 311 311 311 311 311 310 310 310 307 305 304 302 299 295 291 288 288
211 213 217 223 229 237 245 250 253 256 260 264 267 269 272 274 276 279 281 283 286 288 289 291 292 293 294 296 297 298 300 300 301 301 301 302 303 304 304 305 306 306 306 307 308 308 309 308 307 307 306 306 307 308 308 308 309 309 310 311 311 312 313 312 312 312 312 311 312 313 313 314 314 313 312 311 309 307 306 306 304 301 298 294 291
212 216 222 230 237 245 249 253 256 260 263 267 270 273 276 278 280 282 284 286 288 289 290 291 292 293 294 296 297 298 299 299 299 299 299 300 300 301 302 303 304 304 305 306 305 306 307 307 306 306 306 305 306 307 307 308 309 310 311 312 313 314 314 314 313 314 313 313 313 315 315 315 315 314 312 310 308 307 306 306 305 304 302 299 294
216 222 231 238 244 250 253 256 260 264 267 271 273 275 277 279 281 283 285 287 288 290 291 292 293 293 294 295 296 296 296 296 296 297 297 297 298 299 301 302 302 303 304 304 304 304 304 304 303 303 303 303 305 306 306 307 309 310 310 311 313 313 314 313 313 313 313 313 314 315 315 315 314 313 311 308 307 306 306 304 302 300 298 297 294
223 231 239 245 248 252 254 258 262 266 269 272 274 275 277 279 281 283 285 287 288 289 290 291 292 292 293 294 295 295 295 295 295 295 295 295 296 297 298 299 301 301 301 302 302 301 300 300 300 299 300 301 303 304 304 306 307 308 309 310 311 311 311 311 310 310 310 311 312 313 313 314 314 312 310 308 306 304 303 301 299 296 292 289 287
232 238 243 247 250 253 257 261 264 267 269 271 273 275 277 280 281 283 285 286 287 288 289 289 290 292 293 293 293 293 294 294 294 294 294 294 295 296 297 298 299 300 300 300 299 297 296 296 296 296 297 298 299 301 303 304 305 307 308 308 309 309 309 308 307 306 306 307 308 308 309 311 313 312 311 309 306 304 302 300 297 295 293 290 287
237 241 245 248 252 255 259 261 264 266 269 271 274 276 279 281 282 284 286 286 287 288 289 289 290 291 291 290 290 291 292 293 292 292 292 293 293 294 295 296 296 297 298 298 296 294 293 292 292 293 294 295 297 299 301 303 303 305 306 306 307 307 306 305 305 304 303 304 305 305 305 308 310 310 310 309 306 305 303 300 298 296 295 293 291
239 243 248 251 254 257 260 262 265 268 271 273 276 278 280 283 284 286 287 288 289 289 290 291 291 290 289 289 290 290 291 291 291 291 291 292 292 292 293 293 294 295 295 295 294 292 290 289 289 290 291 292 295 297 299 301 303 304 305 305 305 305 304 303 303 303 303 303 304 304 305 305 306 306 308 308 306 305 304 301 299 298 296 294 292